Regional Weather Roundup
Issued by NWS

Home | Current Version | Previous Version | Graphics & Text | Print | Product List | Glossary On
Versions: 1 2 3 4 5 6 7 8 9 10 11 12 13 14 15 16 17 18 19 20 21 22 23 24 25 26 27 28 29 30 31 32 33 34 35 36 37 38 39 40 41 42 43 44 45 46 47 48 49 50
000
ASUS43 KDMX 292206
RWRIA

WEATHER ROUNDUP FOR IOWA
NATIONAL WEATHER SERVICE DES MOINES IA
500 PM CDT WED MAR 29 2017

NOTE: "FAIR" INDICATES FEW OR NO CLOUDS BELOW 12,000 FEET WITH NO
SIGNIFICANT WEATHER AND/OR OBSTRUCTIONS TO VISIBILITY.

* - THESE STATIONS ARE NOT NWS STATIONS...THUS NOT UNDER NWS
QUALITY CONTROL.  THEY ALSO DO NOT REPORT WEATHER SUCH
AS PRECIPITATION OR FOG.

IAZ001>003-012>014-020>022-031>034-043>046-292300-
   NORTHWEST IOWA

CITY           SKY/WX    TMP DP  RH WIND       PRES   REMARKS
CARROLL *      LGT RAIN  41  41 100 NE24G37   29.94R VSB 1
CHEROKEE *     LGT RAIN  39  39  98 NE20G31   29.98F WCI  30
DENISON *      LGT RAIN  41  41 100 E24G32    29.94S
LE MARS *      CLOUDY    41  39  93 NE17G30   29.99F
ORANGE CITY *  LGT RAIN  39  37  93 E22G32    29.99F WCI  29
SHELDON *      CLOUDY    39  37  93 E26G36    30.00F FOG     WCI  28
SIOUX CITY     LGT RAIN  42  41  96 E21G29    29.95R
SPENCER        LGT RAIN  40  37  89 E31G41    30.03F WCI  28
STORM LAKE *   CLOUDY    39  37  93 NE33      29.96F FOG     WCI  27
$$

IAZ055>058-069>071-079>083-090>094-292300-
   SOUTHWEST IOWA

CITY           SKY/WX    TMP DP  RH WIND       PRES   REMARKS
ATLANTIC *     LGT RAIN  43  43 100 NE10G21   29.87R VSB 3/4
AUDUBON *      RAIN      43  39  87 NE20G30   29.90S
CLARINDA *     CLOUDY    46  46 100 NE12G17   29.81F FOG
COUNCIL BLFS * CLOUDY    43  43 100 NE20G28   29.85F FOG
CRESTON *      MIX PCPN  45  45 100 E18G26    29.83S VSB 1
HARLAN  *      LGT RAIN  43  43 100 NE21G28   29.91S VSB 1
LAMONI         LGT RAIN  49  47  93 E13G18    29.81S FOG
RED OAK *      MIX PCPN  45  43  93 NE15G22   29.82F VSB 1
SHENANDOAH *   CLOUDY    45  45 100 NE17      29.79F FOG
$$

IAZ047>049-059>061-072>074-084-292300-
   CENTRAL IOWA

CITY           SKY/WX    TMP DP  RH WIND       PRES   REMARKS
AMES           RAIN      41  41 100 E23G33    29.93R FOG
BOONE *        FOG       41  41 100 E30G38    29.90S VSB 1
CHARITON *     CLOUDY    46  46 100 E16       29.85S
DES MOINES     LGT RAIN  45  42  89 E17G29    29.89S
KNOXVILLE *    CLOUDY    46  45  93 E14       29.87R
MARSHALLTOWN   LGT RAIN  42  40  92 E31G39    29.91F FOG
NEWTON *       CLOUDY    43  43 100 E22G31    29.90R FOG
PELLA *        LGT RAIN  45  44  95 E16G23    29.91R
PERRY *        LGT RAIN  42  41  95 E20G30    29.90S
$$

IAZ004>006-015-016-023>025-035-036-292300-
   NORTH CENTRAL IOWA

CITY           SKY/WX    TMP DP  RH WIND       PRES   REMARKS
ALGONA *       LGT RAIN  41  41 100 E22G40    30.04F
CLARION *      CLOUDY    41  41 100 E29G39    30.00S FOG
ESTHERVILLE    RAIN      40  38  93 E21G30    30.06F FOG     WCI  30
FORT DODGE *   CLOUDY    39  36  87 NE23G33   29.97F WCI  29
MASON CITY     LGT RAIN  40  37  89 E22G30    30.08F FOG     WCI  30
FOREST CITY *  RAIN      39  37  93 E14G25    30.08S WCI  31
WEBSTER CITY * LGT RAIN  41  39  93 NE28G40   29.93F
IOWA FALLS *   LGT RAIN  42  39  91 NE24G33   29.97S
$$

IAZ007>011-017>019-026>030-037>042-050>054-066-292300-
   NORTHEAST IOWA

CITY           SKY/WX    TMP DP  RH WIND       PRES   REMARKS
CEDAR RAPIDS   RAIN      43  42  97 E26G35    29.95F FOG
CLINTON *      LGT RAIN  46  40  79 E18G26    30.01S
DECORAH *      LGT RAIN  41  37  87 E15       30.12F
DUBUQUE        LGT RAIN  44  36  73 NE16G23   30.04F
MONTICELLO *   LGT RAIN  45  39  81 E15G28    30.02F
OELWEIN *      LGT RAIN  43  41  93 NE24G35   30.03F
WATERLOO       LGT RAIN  43  38  82 NE29G37   30.00F
$$

IAZ064-065-067-068-078-292300-
   EAST CENTRAL IOWA

CITY           SKY/WX    TMP DP  RH WIND       PRES   REMARKS
DAVENPORT      LGT RAIN  46  41  82 E17G25    30.00R
IOWA CITY      RAIN      46  41  82 E18G26    29.96F
MUSCATINE *    LGT RAIN  46  43  87 E12G22    29.97R
QUAD CITIES    LGT RAIN  48  42  80 E18       29.97S
$$

IAZ062-063-075>077-085>089-095>099-292300-
   SOUTHEAST IOWA

CITY           SKY/WX    TMP DP  RH WIND       PRES   REMARKS
BURLINGTON     CLOUDY    49  48  97 E20       29.90S
FAIRFIELD *    PTSUNNY   46  45  93 E21G29    29.88F FOG
FORT MADISON * CLOUDY    48  48 100 E13G24    29.90S
KEOKUK *       CLOUDY    50  46  87 E20       29.86F
OSKALOOSA *    LGT RAIN  45  44  95 E24G35    29.88R
CENTERVILLE *  CLOUDY    48  48 100 E16G24    29.86R
OTTUMWA        LGT RAIN  47  46  97 E21G28    29.87R
WASHINGTON *   CLOUDY    46  46 100 E21G31    29.93F FOG
$$

ABBREVIATIONS USED IN REMARKS
   TC - TEMPERATURES IN CELSIUS
  WCI - WIND CHILL INDEX
   HX - HEAT INDEX
  VSB - VISIBILITY
$$




USA.gov is the U.S. government's official web portal to all federal, state and local government web resources and services.